Location: DaVinci Observatory
(43.1080°N, 78.6453°W)
Time: 05:21:36
(UTC-04:00)

Hubble Space Telescope - Pass Details

Date: 07 October 2017
Orbit: 537 x 541 km, 28.5° (Epoch: 17 October)

Event Time Altitude Azimuth Distance (km) Brightness Sun altitude
Exits shadow 05:36:41 10° 185° (S) 1,770 3.2 -19.4°
Maximum altitude 05:36:48 10° 183° (S) 1,769 3.3 -19.4°
Drops below altitude 10° 05:37:26 10° 174° (S) 1,787 3.4 -19.3°
Sets 05:41:44 0° 132° (SE) 2,678 4.9 -18.5°
